Time,TemperatureF,DewpointF,PressureIn,WindDirection,WindDirectionDegrees,WindSpeedMPH,WindSpeedGustMPH,Humidity,HourlyPrecipIn,Conditions,Clouds,dailyrainin,SolarRadiationWatts/m^2,SoftwareType,DateUTC
2013-01-12 00:03:00,61.0,61.0,-100.00,SSW,198,6.0,13.0,100,0.05,,,0.56,0.000000,,2013-01-12 06:03:00,
2013-01-12 00:33:00,62.0,62.0,-100.00,SSW,206,9.0,20.0,100,0.00,,,0.54,0.000000,,2013-01-12 06:33:00,
2013-01-12 00:43:00,62.0,62.0,-100.00,SSW,206,9.0,20.0,100,0.00,,,0.54,0.000000,,2013-01-12 06:43:00,
2013-01-12 00:53:00,62.0,62.0,-100.00,SSW,206,9.0,20.0,100,0.00,,,0.54,0.000000,,2013-01-12 06:53:00,
2013-01-12 01:02:00,62.0,62.0,-100.00,SSW,206,9.0,20.0,100,0.00,,,0.54,0.000000,,2013-01-12 07:02:00,
2013-01-12 01:32:00,62.0,62.0,-100.00,SW,218,8.0,20.0,100,0.00,,,0.53,0.000000,,2013-01-12 07:32:00,
2013-01-12 01:42:00,62.0,62.0,-100.00,SW,218,8.0,20.0,100,0.00,,,0.53,0.000000,,2013-01-12 07:42:00,
2013-01-12 01:53:00,62.0,62.0,-100.00,SW,218,8.0,20.0,100,0.00,,,0.53,0.000000,,2013-01-12 07:53:00,
2013-01-12 02:02:00,62.0,62.0,-100.00,SW,218,8.0,20.0,100,0.00,,,0.53,0.000000,,2013-01-12 08:02:00,
2013-01-12 02:32:00,63.0,63.0,-100.00,SW,215,12.0,21.0,100,0.01,,,0.54,0.000000,,2013-01-12 08:32:00,
2013-01-12 02:42:00,63.0,63.0,-100.00,SW,215,12.0,21.0,100,0.01,,,0.54,0.000000,,2013-01-12 08:42:00,
2013-01-12 02:53:00,63.0,63.0,-100.00,SW,215,12.0,21.0,100,0.01,,,0.54,0.000000,,2013-01-12 08:53:00,
2013-01-12 03:02:00,63.0,63.0,-100.00,SW,215,12.0,21.0,100,0.01,,,0.54,0.000000,,2013-01-12 09:02:00,
2013-01-12 03:33:00,62.0,62.0,-100.00,SW,220,8.0,21.0,100,0.00,,,0.54,0.000000,,2013-01-12 09:33:00,
2013-01-12 03:43:00,62.0,62.0,-100.00,SW,220,8.0,21.0,100,0.00,,,0.54,0.000000,,2013-01-12 09:43:00,
2013-01-12 03:53:00,62.0,62.0,-100.00,SW,220,8.0,21.0,100,0.00,,,0.54,0.000000,,2013-01-12 09:53:00,
2013-01-12 04:02:00,62.0,62.0,-100.00,SW,220,8.0,21.0,100,0.00,,,0.54,0.000000,,2013-01-12 10:02:00,
2013-01-12 04:32:00,62.0,62.0,-100.00,SSW,199,5.0,17.0,100,0.01,,,0.55,0.000000,,2013-01-12 10:32:00,
2013-01-12 04:43:00,62.0,62.0,-100.00,SSW,199,5.0,17.0,100,0.01,,,0.55,0.000000,,2013-01-12 10:43:00,
2013-01-12 04:52:00,62.0,62.0,-100.00,SSW,199,5.0,17.0,100,0.01,,,0.55,0.000000,,2013-01-12 10:52:00,
2013-01-12 05:02:00,62.0,62.0,-100.00,SSW,199,5.0,17.0,100,0.01,,,0.55,0.000000,,2013-01-12 11:02:00,
2013-01-12 05:33:00,62.0,62.0,-100.00,SSW,204,7.0,14.0,100,0.00,,,0.55,0.000000,,2013-01-12 11:33:00,
2013-01-12 05:43:00,62.0,62.0,-100.00,SSW,204,7.0,14.0,100,0.00,,,0.55,0.000000,,2013-01-12 11:43:00,
2013-01-12 05:53:00,62.0,62.0,-100.00,SSW,204,7.0,14.0,100,0.00,,,0.55,0.000000,,2013-01-12 11:53:00,
2013-01-12 06:03:00,62.0,62.0,-100.00,SSW,204,7.0,14.0,100,0.00,,,0.55,0.000000,,2013-01-12 12:03:00,
2013-01-12 06:33:00,62.0,62.0,-100.00,SSW,211,6.0,16.0,100,0.04,,,0.59,0.000000,,2013-01-12 12:33:00,
2013-01-12 06:43:00,62.0,62.0,-100.00,SSW,211,6.0,16.0,100,0.04,,,0.59,0.000000,,2013-01-12 12:43:00,
2013-01-12 06:53:00,62.0,62.0,-100.00,SSW,211,6.0,16.0,100,0.04,,,0.59,0.000000,,2013-01-12 12:53:00,
2013-01-12 07:02:00,62.0,62.0,-100.00,SSW,211,6.0,16.0,100,0.04,,,0.59,0.000000,,2013-01-12 13:02:00,
2013-01-12 07:33:00,62.0,62.0,-100.00,SSW,205,7.0,13.0,100,0.00,,,0.58,2.000000,,2013-01-12 13:33:00,
2013-01-12 07:43:00,62.0,62.0,-100.00,SSW,205,7.0,13.0,100,0.00,,,0.58,2.000000,,2013-01-12 13:43:00,
2013-01-12 07:53:00,62.0,62.0,-100.00,SSW,205,7.0,13.0,100,0.00,,,0.58,2.000000,,2013-01-12 13:53:00,
2013-01-12 08:02:00,62.0,62.0,-100.00,SSW,205,7.0,13.0,100,0.00,,,0.58,2.000000,,2013-01-12 14:02:00,
2013-01-12 08:33:00,62.0,62.0,-100.00,SSW,192,7.0,14.0,100,0.01,,,0.58,13.000000,,2013-01-12 14:33:00,
2013-01-12 08:43:00,62.0,62.0,-100.00,SSW,192,7.0,14.0,100,0.01,,,0.58,13.000000,,2013-01-12 14:43:00,
2013-01-12 08:53:00,62.0,62.0,-100.00,SSW,192,7.0,14.0,100,0.01,,,0.58,13.000000,,2013-01-12 14:53:00,
2013-01-12 09:03:00,62.0,62.0,-100.00,SSW,192,7.0,14.0,100,0.01,,,0.58,13.000000,,2013-01-12 15:03:00,
2013-01-12 09:34:00,62.0,62.0,-100.00,South,175,8.0,20.0,100,0.00,,,0.57,40.000000,,2013-01-12 15:34:00,
2013-01-12 09:43:00,62.0,62.0,-100.00,South,175,8.0,20.0,100,0.00,,,0.57,40.000000,,2013-01-12 15:43:00,
2013-01-12 09:53:00,62.0,62.0,-100.00,South,175,8.0,20.0,100,0.00,,,0.57,40.000000,,2013-01-12 15:53:00,
2013-01-12 10:03:00,62.0,62.0,-100.00,South,175,8.0,20.0,100,0.00,,,0.57,40.000000,,2013-01-12 16:03:00,
2013-01-12 10:33:00,62.0,62.0,-100.00,SSE,164,7.0,12.0,100,0.00,,,0.56,63.000000,,2013-01-12 16:33:00,
2013-01-12 10:43:00,62.0,62.0,-100.00,SSE,164,7.0,12.0,100,0.00,,,0.56,63.000000,,2013-01-12 16:43:00,
2013-01-12 10:53:00,62.0,62.0,-100.00,SSE,164,7.0,12.0,100,0.00,,,0.56,63.000000,,2013-01-12 16:53:00,
2013-01-12 11:02:00,62.0,62.0,-100.00,SSE,164,7.0,12.0,100,0.00,,,0.56,63.000000,,2013-01-12 17:02:00,
2013-01-12 11:33:00,62.0,62.0,-100.00,SSW,208,8.0,16.0,100,0.00,,,0.55,65.000000,,2013-01-12 17:33:00,
2013-01-12 11:43:00,62.0,62.0,-100.00,SSW,208,8.0,16.0,100,0.00,,,0.55,65.000000,,2013-01-12 17:43:00,
2013-01-12 11:53:00,62.0,62.0,-100.00,SSW,208,8.0,16.0,100,0.00,,,0.55,65.000000,,2013-01-12 17:53:00,
2013-01-12 12:03:00,62.0,62.0,-100.00,SSW,208,8.0,16.0,100,0.00,,,0.55,65.000000,,2013-01-12 18:03:00,
2013-01-12 12:33:00,63.0,63.0,-100.00,SW,216,7.0,19.0,100,0.00,,,0.54,104.000000,,2013-01-12 18:33:00,
2013-01-12 12:43:00,63.0,63.0,-100.00,SW,216,7.0,19.0,100,0.00,,,0.54,104.000000,,2013-01-12 18:43:00,
2013-01-12 12:53:00,63.0,63.0,-100.00,SW,216,7.0,19.0,100,0.00,,,0.54,104.000000,,2013-01-12 18:53:00,
2013-01-12 13:03:00,63.0,63.0,-100.00,SW,216,7.0,19.0,100,0.00,,,0.54,104.000000,,2013-01-12 19:03:00,
2013-01-12 13:33:00,64.0,63.0,-100.00,SSW,206,7.0,14.0,98,0.00,,,0.54,117.000000,,2013-01-12 19:33:00,
2013-01-12 13:43:00,64.0,63.0,-100.00,SSW,206,7.0,14.0,98,0.00,,,0.54,117.000000,,2013-01-12 19:43:00,
2013-01-12 13:53:00,64.0,63.0,-100.00,SSW,206,7.0,14.0,98,0.00,,,0.54,117.000000,,2013-01-12 19:53:00,
2013-01-12 14:03:00,64.0,63.0,-100.00,SSW,206,7.0,14.0,98,0.00,,,0.54,117.000000,,2013-01-12 20:03:00,
2013-01-12 14:33:00,65.0,63.0,-100.00,South,179,7.0,14.0,92,0.00,,,0.54,129.000000,,2013-01-12 20:33:00,
2013-01-12 14:43:00,65.0,63.0,-100.00,South,179,7.0,14.0,92,0.00,,,0.54,129.000000,,2013-01-12 20:43:00,
2013-01-12 14:53:00,65.0,63.0,-100.00,South,179,7.0,14.0,92,0.00,,,0.54,129.000000,,2013-01-12 20:53:00,
2013-01-12 15:03:00,65.0,63.0,-100.00,South,179,7.0,14.0,92,0.00,,,0.54,129.000000,,2013-01-12 21:03:00,
2013-01-12 15:33:00,65.0,62.0,-100.00,South,191,8.0,14.0,91,0.00,,,0.54,63.000000,,2013-01-12 21:33:00,
2013-01-12 15:43:00,65.0,62.0,-100.00,South,191,8.0,14.0,91,0.00,,,0.54,63.000000,,2013-01-12 21:43:00,
2013-01-12 15:53:00,65.0,62.0,-100.00,South,191,8.0,14.0,91,0.00,,,0.54,63.000000,,2013-01-12 21:53:00,
2013-01-12 16:03:00,65.0,62.0,-100.00,South,191,8.0,14.0,91,0.00,,,0.54,63.000000,,2013-01-12 22:03:00,
2013-01-12 16:33:00,64.0,60.0,-100.00,South,171,7.0,17.0,87,0.00,,,0.54,40.000000,,2013-01-12 22:33:00,
2013-01-12 16:43:00,64.0,60.0,-100.00,South,171,7.0,17.0,87,0.00,,,0.54,40.000000,,2013-01-12 22:43:00,
2013-01-12 16:53:00,64.0,60.0,-100.00,South,171,7.0,17.0,87,0.00,,,0.54,40.000000,,2013-01-12 22:53:00,
2013-01-12 17:03:00,64.0,60.0,-100.00,South,171,7.0,17.0,87,0.00,,,0.54,40.000000,,2013-01-12 23:03:00,
2013-01-12 17:33:00,63.0,60.0,-100.00,SSE,167,9.0,14.0,91,0.00,,,0.43,7.000000,,2013-01-12 23:33:00,
2013-01-12 17:43:00,63.0,60.0,-100.00,SSE,167,9.0,14.0,91,0.00,,,0.43,7.000000,,2013-01-12 23:43:00,
2013-01-12 17:53:00,63.0,60.0,-100.00,SSE,167,9.0,14.0,91,0.00,,,0.43,7.000000,,2013-01-12 23:53:00,
2013-01-12 18:03:00,63.0,60.0,-100.00,SSE,167,9.0,14.0,91,0.00,,,0.43,7.000000,,2013-01-13 00:03:00,
2013-01-12 18:33:00,63.0,61.0,-100.00,South,173,5.0,14.0,92,0.00,,,0.40,0.000000,,2013-01-13 00:33:00,
2013-01-12 18:43:00,63.0,61.0,-100.00,South,173,5.0,14.0,92,0.00,,,0.40,0.000000,,2013-01-13 00:43:00,
2013-01-12 18:53:00,63.0,61.0,-100.00,South,173,5.0,14.0,92,0.00,,,0.40,0.000000,,2013-01-13 00:53:00,
2013-01-12 19:03:00,63.0,61.0,-100.00,South,173,5.0,14.0,92,0.00,,,0.40,0.000000,,2013-01-13 01:03:00,
2013-01-12 19:33:00,63.0,61.0,-100.00,South,172,8.0,13.0,93,0.00,,,0.40,0.000000,,2013-01-13 01:33:00,
2013-01-12 19:43:00,63.0,61.0,-100.00,South,172,8.0,13.0,93,0.00,,,0.40,0.000000,,2013-01-13 01:43:00,
2013-01-12 19:53:00,63.0,61.0,-100.00,South,172,8.0,13.0,93,0.00,,,0.40,0.000000,,2013-01-13 01:53:00,
2013-01-12 20:02:00,63.0,61.0,-100.00,South,172,8.0,13.0,93,0.00,,,0.40,0.000000,,2013-01-13 02:02:00,
2013-01-12 20:33:00,62.0,60.0,-100.00,South,176,9.0,19.0,92,0.00,,,0.36,0.000000,,2013-01-13 02:33:00,
2013-01-12 20:43:00,62.0,60.0,-100.00,South,176,9.0,19.0,92,0.00,,,0.36,0.000000,,2013-01-13 02:43:00,
2013-01-12 20:53:00,62.0,60.0,-100.00,South,176,9.0,19.0,92,0.00,,,0.36,0.000000,,2013-01-13 02:53:00,
2013-01-12 21:03:00,62.0,60.0,-100.00,South,176,9.0,19.0,92,0.00,,,0.36,0.000000,,2013-01-13 03:03:00,
2013-01-12 21:33:00,62.0,59.0,-100.00,South,179,8.0,14.0,91,0.00,,,0.30,0.000000,,2013-01-13 03:33:00,
2013-01-12 21:43:00,62.0,59.0,-100.00,South,179,8.0,14.0,91,0.00,,,0.30,0.000000,,2013-01-13 03:43:00,
2013-01-12 21:53:00,62.0,59.0,-100.00,South,179,8.0,14.0,91,0.00,,,0.30,0.000000,,2013-01-13 03:53:00,
2013-01-12 22:03:00,62.0,59.0,-100.00,South,179,8.0,14.0,91,0.00,,,0.30,0.000000,,2013-01-13 04:03:00,
2013-01-12 22:33:00,62.0,59.0,-100.00,South,174,10.0,16.0,89,0.00,,,0.12,0.000000,,2013-01-13 04:33:00,
2013-01-12 22:43:00,62.0,59.0,-100.00,South,174,10.0,16.0,89,0.00,,,0.12,0.000000,,2013-01-13 04:43:00,
2013-01-12 22:53:00,62.0,59.0,-100.00,South,174,10.0,16.0,89,0.00,,,0.12,0.000000,,2013-01-13 04:53:00,
2013-01-12 23:03:00,62.0,59.0,-100.00,South,174,10.0,16.0,89,0.00,,,0.12,0.000000,,2013-01-13 05:03:00,
2013-01-12 23:33:00,60.0,57.0,-100.00,SSE,168,10.0,16.0,89,0.00,,,0.07,0.000000,,2013-01-13 05:33:00,
2013-01-12 23:42:00,60.0,57.0,-100.00,SSE,168,10.0,16.0,89,0.00,,,0.07,0.000000,,2013-01-13 05:42:00,
2013-01-12 23:53:00,60.0,57.0,-100.00,SSE,168,10.0,16.0,89,0.00,,,0.07,0.000000,,2013-01-13 05:53:00,